User: anonymous   Login
Location: Stoke Bliss
(52.2667°N, 2.5167°W)
Time: 15:07:59
(UTC+00:00)
Language:

Meteor 1-19 Rocket - Orbit

View from above orbital plane
View from above orbital plane
View from above satellite
View from above satellite

Ground track
Ground track

The orbit data is extracted from the following two-line orbital elements,

1 07493U 74083B   21137.60821634 -.00000116  00000-0 -73855-4 0  9991
2 07493  81.1611 201.4409 0083112  39.5471 321.1721 14.07584516389713
Epoch (UTC): 17 May 2021 14:35:49
Eccentricity: 0.0083112
inclination: 81.1611°
perigee height: 807 km
apogee height: 928 km
right ascension of ascending node: 201.4409°
argument of perigee: 39.5471°
revolutions per day: 14.07584516
mean anomaly at epoch: 321.1721°
orbit number at epoch: 38971

The dashed part of the orbit path shows where the satellite is in the earth's shadow,  

DLR